Hourly Weather Roundup
Issued by NWS Central Illinois

Home | Current Version | Previous Version | Text Only | Print | Product List | Glossary On
Versions: 1 2 3 4 5 6 7 8 9 10 11 12 13 14 15 16 17 18 19 20 21 22 23 24 25 26 27 28 29 30 31 32 33 34 35 36 37 38 39 40 41 42 43 44 45 46 47 48 49 50
000
NZUS43 KILX 312010
HWRILX

AREA WEATHER ROUNDUP
NATIONAL WEATHER SERVICE, LINCOLN IL
200 PM CST SAT JAN 31 2015


CITY           SKY/WX    TMP DP  RH WIND       PRES   REMARKS
BLOOMINGTON    CLOUDY    39  30  70 W13       30.22F WCI  31
CHAMPAIGN      CLOUDY    38  29  70 SW14      30.23F WCI  30
DECATUR        CLOUDY    37  27  67 SW12      30.25F WCI  29
FLORA          CLOUDY    41  28  60 S7        30.29F
GALESBURG      DRIZZLE   34  33  95 SW8       30.19F WCI  28
JACKSONVILLE   CLOUDY    41  26  56 S5        30.22F
LACON          CLOUDY    39  29  67 SW9       30.19F WCI  33
LAWRENCEVILLE  CLOUDY    41  26  55 SW8       30.31F
LITCHFIELD     CLOUDY    37  28  71 S5        30.25F WCI  33
$$


CITY           SKY/WX    TMP DP  RH WIND       PRES   REMARKS
LINCOLN        DRIZZLE   39  28  63 SW3       30.24F
MACOMB         RAIN      36  34  94 SW8       30.22F WCI  29
MATTOON        CLOUDY    36  25  64 S10       30.25F WCI  28
MT CARMEL AP   CLOUDY    43  28  56 S9        30.30F
OLNEY-NOBLE AP CLOUDY    39  30  70 CALM      30.30F
PARIS          CLOUDY    39  30  70 S9        30.26F WCI  33
PEORIA         LGT RAIN  38  29  70 SW8       30.21F WCI  32
PONTIAC        CLOUDY    39  32  76 SW10      30.21F WCI  32
RANTOUL        CLOUDY    40  31  70 SW13      30.22F WCI  32
ROBINSON       CLOUDY    39  27  60 SW6       30.30F WCI  35
SPRINGFIELD    CLOUDY    39  28  64 SW7       30.24F WCI  34
TAYLORVILLE    CLOUDY    36  30  80 S7        30.25F WCI  30
$$

...REGIONAL REPORTS...


CITY           SKY/WX    TMP DP  RH WIND       PRES   REMARKS
CHICAGO O`HARE CLOUDY    34  24  67 W9        30.16S WCI  27
KANKAKEE       CLOUDY    37  31  77 SW12      30.20S WCI  30
MOLINE         CLOUDY    36  33  89 W7        30.17F FOG     WCI  30
MOUNT VERNON   CLOUDY    43  27  52 SE5       30.28F
PITTSFIELD     RAIN      38  29  70 CALM      30.23F
QUINCY         LGT RAIN  34  31  88 S8        30.21F FOG     WCI  27
ROCKFORD       CLOUDY    36  25  64 W5        30.17S WCI  32
$$


CITY           SKY/WX    TMP DP  RH WIND       PRES   REMARKS
BURLINGTON     MIX PCPN  35  31  85 SW7       30.18F FOG     WCI  29
CEDAR RAPIDS   CLOUDY    36  36 100 SW7       30.13F FOG     WCI  30
DES MOINES     LGT RAIN  38  35  89 SW8       30.12F WCI  32
KIRKSVILLE     LGT RAIN  36  36 100 S6        30.18F FOG     WCI  31
OTTUMWA        LGT RAIN  38  38 100 SW6       30.15F FOG     WCI  33
ST LOUIS       CLOUDY    45  23  42 CALM      30.23F
$$


CITY           SKY/WX    TMP DP  RH WIND       PRES   REMARKS
TERRE HAUTE    CLOUDY    40  25  55 S9        30.27F WCI  34
EVANSVILLE     CLOUDY    42  26  53 SW12      30.34S
INDIANAPOLIS   CLOUDY    36  22  56 SW12      30.25F WCI  28
LAFAYETTE      CLOUDY    37  25  61 SW8       30.23F WCI  31
MADISON        CLOUDY    34  22  61 NE5       30.14S WCI  30
MILWAUKEE      PTSUNNY   35  20  54 E8        30.16S WCI  29
$$




USA.gov is the U.S. government's official web portal to all federal, state and local government web resources and services.